sat.trackr.live / text

‹ back to catalog

STARLINK-30946

NORAD 58450 · 2023-183P

PAYLOAD ACTIVE UNKNOWN

§ Identity

Operator
Country
US
Launch date
2023-11-28
Launch site
AFETR
Launch vehicle
Mass (kg)
RCS (m²)

Purposes: comms

External: N2YO · Heavens-Above · Gunter

§ Orbital elements

Epoch: 2026-05-24T19:02:56.399712Z

Period
94.27 min
Inclination
43.0022°
Eccentricity
0.0001442
Mean motion
15.27575177 rev/d
Perigee alt
482.1 km
Apogee alt
484.1 km
Semi-major
6,861.2 km
B*
4.9815e-5
RAAN
331.8046°
Arg perigee
261.6080°
Mean anomaly
98.4609°
Rev number
13,837

§ Raw data

STARLINK-309461 58450U 23183P   26144.79370833  .00001109  00000+0  49815-4 0  99972 58450  43.0022 331.8046 0001442 261.6080  98.4609 15.27575177138379

JSON: /api/v1/satellites/58450 · /tle

For live sub-satellite position, see the globe view (requires WebGL).

§ Visibility from observer

Set your observer location to see the next 7 days of passes ≥ 10°. The values pass through the URL so the page stays shareable.

No JS? Fill the form by hand. The geolocation button needs JavaScript.